www.pogodaiklimat.ru

Погода и климат >> Архив погоды >> Индия >> Guna


ПОГОДА в Guna

  • Прогноз погоды в Guna
  • Монитор погоды в Guna
  • Климат города

АРХИВ ПОГОДЫ в Guna

Время (UTC), дата Ветер
(напр.,м/с)
 
Видим.   Явления Облачность Т
(С)
Тd
(С)
f
(%)
Тe
(С)
Тes
(С)
Комфортность P
(гПа)
Po
(гПа)
Тmin
(С)
Tmax
(С)
R
(мм)
R24
(мм)
S
(см)
15 16.04 СЗ 1 4000 м 5/0
[Ac trans]
+32.8 +14.6 33 +34 +34 очень
жарко
1005.8 1006.0
18 16.04 СЗ 1 4000 м 5/0
[Ac trans]
+30.0 +13.7 37 +32 +32 жарко 1008.7 1009.0
21 16.04 СЗ 2 4000 м 4/0
[Ac trans]
+28.4 +13.2 39 +30 +30 жарко 1006.7 1007.0
00 17.04 штиль 0 4000 м 3/0
[Ac trans]
+26.2 +12.9 44 +28 +28 жарко 1007.6 1008.0
03 17.04 штиль 0 4000 м 3/0
[Ac trans]
+30.0 +13.3 36 +31 +39 жарко 1008.9 1009.0 +25.0
06 17.04 З 1 4000 м 3/0
[Ci sp]
+38.6 +10.7 19 +38 +60 опасность
солнечного
удара
1007.6 1008.0
09 17.04 СЗ 1 4000 м 4/0
[Ac trans]
+40.6 +11.6 18 +40 +54 опасность
солнечного
удара
1004.9 1005.0
12 17.04 СЗ 2 4000 м ясно +38.8 +11.1 19 +38 +40 очень
жарко
1003.7 1004.0 +40.8
15 17.04 штиль 0 4000 м ясно +32.6 +11.5 28 +33 +33 жарко 1006.3 1006.0
18 17.04 штиль 0 4000 м ясно +28.4 +11.9 36 +29 +29 жарко 1007.3 1007.0
21 17.04 штиль 0 4000 м ясно +25.8 +11.4 41 +27 +27 жарко 1006.7 1007.0
00 18.04 штиль 0 4000 м ясно +24.4 +11.3 44 +26 +26 жарко 1007.9 1008.0
03 18.04 штиль 0 4000 м ясно +29.6 +10.3 30 +30 +39 жарко 1008.8 1009.0 +22.9
06 18.04 В 1 4000 м ясно +38.0 +10.7 19 +37 +60 опасность
солнечного
удара
1007.4 1007.0
09 18.04 СЗ 2 4000 м ясно +40.0 +11.1 18 +39 +56 опасность
солнечного
удара
1003.9 1004.0
12 18.04 СЗ 1 4000 м ясно +39.2 +10.1 17 +38 +40 очень
жарко
1002.2 1002.0 +41.0
15 18.04 СЗ 1 4000 м ясно +32.8 +10.8 26 +32 +32 жарко 1004.7 1005.0
18 18.04 штиль 0 4000 м ясно +28.8 +11.0 33 +29 +29 жарко 1005.2 1005.0
21 18.04 штиль 0 4000 м ясно +26.6 +10.7 37 +27 +27 жарко 1003.2 1003.0
00 19.04 штиль 0 4000 м ясно +24.4 +9.9 40 +25 +25 комфорт 1005.4 1005.0
03 19.04 Ю 1 4000 м ясно +32.6 +12.5 29 +33 +41 жарко 1005.1 1005.0 +23.6
06 19.04 СЗ 1 4000 м ясно +39.0 +10.9 19 +38 +62 опасность
солнечного
удара
1003.8 1004.0
09 19.04 СЗ 2 4000 м ясно +41.4 +13.1 19 +41 +58 опасность
перегрева
1000.2 1000.0
12 19.04 СЗ 2 4000 м 4/0
[Ac trans]
+39.8 +12.4 20 +39 +41 очень
жарко
998.9 999.0 +41.8
15 19.04 СЗ 1 4000 м 4/0
[Ac trans]
+33.0 +12.2 28 +33 +33 жарко 1001.7 1002.0
18 19.04 штиль 0 4000 м ясно +29.8 +12.5 35 +31 +31 жарко 1002.4 1002.0
21 19.04 З 2 4000 м 4/0
[Ac trans]
+30.6 +11.4 31 +31 +31 жарко 1000.6 1001.0
00 20.04 ЮЗ 1 4000 м 5/0
[Ac trans]
+28.4 +12.3 37 +30 +30 жарко 1001.0 1001.0
03 20.04 З 1 4000 м 6/0
[Ac trans]
+32.0 +12.0 29 +32 +38 жарко 1002.4 1002.0 +28.2
06 20.04 З 2 4000 м 4/0
[Ac trans]
+38.0 +12.5 22 +47 +63 опасность
перегрева
1001.7 1002.0
09 20.04 З 2 4000 м ясно +40.4 +13.4 20 +40 +57 опасность
солнечного
удара
999.9 1000.0
12 20.04 З 1 4000 м ясно +38.4 +14.5 24 +39 +41 очень
душно
999.7 1000.0 +41.6
15 20.04 З 1 4000 м 4/0
[Ac trans]
+33.6 +12.1 27 +34 +34 очень
жарко
1002.4 1002.0
18 20.04 З 2 4000 м ясно +31.6 +11.4 29 +32 +32 жарко 1005.1 1005.0
21 20.04 штиль 0 4000 м ясно +28.6 +11.2 34 +29 +29 жарко 1005.0 1005.0
00 21.04 штиль 0 4000 м ясно +25.0 +10.7 41 +26 +26 жарко 1005.9 1006.0
03 21.04 С 2 4000 м ясно +30.0 +10.9 31 +30 +38 жарко 1006.9 1007.0 +24.2
06 21.04 штиль 0 4000 м ясно +35.0 +11.4 24 +35 +62 опасность
солнечного
удара
1006.2 1006.0
09 21.04 З 1 4000 м ясно +38.0 +11.3 20 +37 +55 опасность
солнечного
удара
1002.9 1003.0
12 21.04 З 1 4000 м ясно +36.6 +12.0 23 +36 +38 очень
жарко
1002.3 1002.0 +39.0
15 21.04 штиль 0 4000 м ясно +31.4 +9.5 26 +31 +31 жарко 1004.5 1005.0
18 21.04 штиль 0 4000 м ясно +27.4 +9.9 33 +28 +28 жарко 1006.0 1006.0
21 21.04 штиль 0 4000 м ясно +24.8 +8.5 35 +25 +25 комфорт 1006.2 1006.0
00 22.04 штиль 0 4000 м ясно +23.6 +10.2 43 +25 +25 комфорт 1007.0 1007.0
03 22.04 штиль 0 4000 м ясно +29.0 +6.5 24 +28 +38 жарко 1007.4 1007.0 +22.4
06 22.04 СЗ 2 4000 м ясно +35.0 +10.3 22 +34 +56 опасность
солнечного
удара
1007.8 1008.0
09 22.04 СЗ 1 4000 м ясно +36.6 +8.7 18 +35 +53 опасность
солнечного
удара
1004.8 1005.0
12 22.04 З 1 4000 м ясно +37.0 +9.4 19 +36 +38 очень
жарко
1003.5 1004.0 +38.4
15 22.04 штиль 0 4000 м ясно +30.4 +8.9 26 +30 +30 жарко 1006.4 1006.0
18 22.04 штиль 0 4000 м ясно +25.8 +8.4 33 +26 +26 жарко 1007.7 1008.0
21 22.04 штиль 0 4000 м ясно +24.0 +6.7 33 +24 +24 комфорт 1007.3 1007.0
00 23.04 штиль 0 4000 м ясно +22.6 +7.2 37 +23 +23 комфорт 1008.3 1008.0
03 23.04 В 1 4000 м ясно +30.4 +6.6 22 +29 +38 жарко 1009.2 1009.0 +21.0
06 23.04 штиль 0 4000 м ясно +35.4 +8.2 19 +34 +61 опасность
солнечного
удара
1007.6 1008.0
09 23.04 СЗ 2 4000 м ясно +38.4 +9.2 17 +37 +54 опасность
солнечного
удара
1003.8 1004.0
12 23.04 З 1 4000 м ясно +37.0 +9.4 19 +36 +38 очень
жарко
1003.4 1003.0 +39.0

 

Местоположение метеостанции Guna (Madhya Pradesh, Индия): широта 24.65 долгота 77.32 высота над уровнем моря 478 м.

В архиве по умолчанию представлена погода в Guna за последнюю неделю. Архивные данные за месяц целиком и за предыдущие месяцы, начиная с января 2011 года, Вы можете получить, выбрав интересующий диапазон дат из раскрывающегося списка и нажав кнопку "Ввод!".


*Определитесь, кто Вы:
робот инопланетянин человек

Внимание! Время в таблицах - всемирное. Для получения местного времени необходимо прибавить поправку, которая в Guna равна 5.5 ч.

Смотрите также архив погоды в соседних городах и на ближайших метеорологических станциях:

Погода в Shivpuri (Madhya Pradesh, Индия) (83 км)
Погода в Rajgarh (Madhya Pradesh, Индия) (94 км)
Погода в Sheopur (Madhya Pradesh, Индия) (130 км)
Погода в Bhopal (Madhya Pradesh, Индия) (152 км)
Погода в Tikamgarh (Madhya Pradesh, Индия) (153 км)
Погода в Raisen (Madhya Pradesh, Индия) (157 км)
Погода в Jhansi (Uttar Pradesh, Индия) (158 км)
Погода в Kota (Rajasthan, Индия) (158 км)
Погода в Shajapur (Madhya Pradesh, Индия) (170 км)
Погода в Sagar (Madhya Pradesh, Индия) (170 км)

Пояснения к столбцам:

Ветер - указаны скорость ветра в м/с - средняя за 10 мин, порывы в срок и между сроками (в фигурных скобках) и направление, откуда дует ветер: С - северный, СВ - северо-восточный, В - восточный, ЮВ - юго-восточный, Ю - южный, ЮЗ - юго-западный, З - западный, СЗ - северо-западный.
Видимость - горизонтальная дальность видимости в метрах или километрах. При видимости от 1 до 10 км при отсутствии осадков обычно наблюдается дымка, при ухудшении видимости до 1 км и менее - туман. В сухую погоду видимость может ухудшаться дымом, пылью или мглою.
Явления - указаны атмосферные явления, наблюдавшиеся в срок или в последний час перед сроком; фигурными скобками обозначены явления, наблюдавшиеся между сроками (за 1-3 часа до срока); квадратными скобками обозначены град или гололедные отложения с указанием их диаметра в мм.
Облачность - указаны через наклонную черту общая и нижняя облачность в баллах и высота нижней границы облаков в метрах; квадратными скобками обозначены формы облаков: Ci - перистые, Cs - перисто-слоистые, Cc - перисто-кучевые, Ac - высококучевые, As - высокослоистые, Sc - слоисто-кучевые, Ns - слоисто-дождевые, Cu - кучевые, Cb - кучево-дождевые. Подробнее классификацию облаков см. в Атласе облаков (PDF).
T - Температура воздуха - температура, измеренная на высоте 2 м над землей.
Td - Температура точки росы - температура, при понижении до которой содержащийся в воздухе водяной пар достигнет насыщения.
f - Относительная влажность воздуха - влажноcть воздуха, измеренная на высоте 2 м над землей.
Te - Эффективная температура - температура, которую ощущает одетый по сезону человек в тени. Характеристика душности погоды. При расчете учитывается влияние влажности воздуха и скорости ветра на теплоощущения человека.
Tes - Эффективная температура на солнце - температура, которую ощущает человек, с поправкой на солнечный нагрев. Характеристика знойности погоды. Зависит от высоты солнца над горизонтом, облачности и скорости ветра. Ночью, в пасмурную погоду, а также при ветре 12 м/с и более поправка равна нулю.
P - Атмосферное давление - приведенное к уровню моря атмосферное давление.
Po - Атмосферное давление - измеренное на уровне метеостанции атмосферное давление.
Tmin - Минимальная температура - минимум температуры воздуха на высоте 2 м над землей.
Tmax - Максимальная температура - максимум температуры воздуха на высоте 2 м над землей.
R - Количество осадков - Количество выпавших осадков за период времени, мм. При наведении курсора мыши на число - период времени, за который выпало указанное количество осадков.
R24 - Количество осадков - Количество выпавших осадков за 24 часа, мм.
S - Снежный покров - Высота снежного покрова, см. При наведении курсора мыши на число - состояние снежного покрова и степень покрытия местности в баллах.